Tracking 29892 objects as of 21-Nov-2024
HD Live streaming from Space Station
objects crossing your sky now

SALSAT (TUBSAT 22)

Track SALSAT (TUBSAT 22) now!
10-day predictions
SALSAT (TUBSAT 22) is classified as:


NORAD ID: 46495
Int'l Code: 2020-068K
Perigee: 510.7 km
Apogee: 530.5 km
Inclination: 97.8 °
Period: 94.9 minutes
Semi major axis: 6891 km
RCS: Unknown
Launch date: September 28, 2020
Source: Germany (GER)
Launch site: PLESETSK MISSILE AND SPACE COMPLEX (PKMTR)

Uplink (MHz):
Downlink (MHz): 435.900/435.950*
Beacon (MHz):
Mode: 1200bps TUBIX10 AFSK
Call sign:
Status: Active

Your satellite tracking list
Your tracking list is empty




NASA's NSSDC Master Catalog

Two Line Element Set (TLE):
1 46495U 20068K   24325.21280171  .00010628  00000-0  53234-3 0  9999
2 46495  97.8379 289.0425 0014362 130.6963 229.5519 15.17486288227933
Source of the keplerian elements: AMSAT